Private Wetterstation Sandau
Wetterdaten: Dienstag, 08.05.2012
Datum Zeit Temp. A. Feuchte A. Luftdruck Regen Wind Richtung Richtung Taupunkt Windchill
08.05.2012 00:01 10,6 C 79 % 1020,3 hPa 0,5 l/m 0,0 km/h (0 Bft) O-SO 112 7,1 C 10,6 C
08.05.2012 00:06 10,6 C 79 % 1020,4 hPa 0,0 l/m 0,0 km/h (0 Bft) O 90 7,1 C 10,6 C
08.05.2012 00:11 10,5 C 79 % 1020,4 hPa 0,0 l/m 0,0 km/h (0 Bft) O-SO 112 7,0 C 10,5 C
08.05.2012 00:16 10,4 C 80 % 1020,4 hPa 0,0 l/m 0,0 km/h (0 Bft) O 90 7,1 C 10,4 C
08.05.2012 00:21 10,4 C 80 % 1020,4 hPa 0,0 l/m 1,4 km/h (1 Bft) O 90 7,1 C 10,4 C
08.05.2012 00:26 10,3 C 80 % 1020,4 hPa 0,0 l/m 0,0 km/h (0 Bft) O 90 7,0 C 10,3 C
08.05.2012 00:31 10,3 C 81 % 1020,4 hPa 0,0 l/m 0,0 km/h (0 Bft) O 90 7,2 C 10,3 C
08.05.2012 00:36 10,3 C 81 % 1020,4 hPa 0,0 l/m 2,5 km/h (1 Bft) O-NO 67 7,2 C 10,3 C
08.05.2012 00:41 10,2 C 81 % 1020,4 hPa 0,0 l/m 1,8 km/h (1 Bft) O-NO 67 7,1 C 10,2 C
08.05.2012 00:46 10,1 C 81 % 1020,4 hPa 0,0 l/m 2,5 km/h (1 Bft) O-SO 112 7,0 C 10,1 C
08.05.2012 00:51 10,0 C 82 % 1020,4 hPa 0,0 l/m 3,6 km/h (1 Bft) O 90 7,1 C 10,0 C
08.05.2012 00:56 9,9 C 82 % 1020,4 hPa 0,0 l/m 3,2 km/h (1 Bft) O-NO 67 7,0 C 9,9 C
08.05.2012 01:01 9,9 C 82 % 1020,2 hPa 0,0 l/m 3,2 km/h (1 Bft) O 90 7,0 C 9,9 C
08.05.2012 01:06 9,8 C 82 % 1020,1 hPa 0,0 l/m 1,8 km/h (1 Bft) O-NO 67 6,9 C 9,8 C
08.05.2012 01:11 9,8 C 82 % 1020,1 hPa 0,0 l/m 4,0 km/h (1 Bft) O-SO 112 6,9 C 9,8 C
08.05.2012 01:16 9,8 C 82 % 1020,1 hPa 0,0 l/m 4,0 km/h (1 Bft) O-SO 112 6,9 C 9,8 C
08.05.2012 01:21 9,8 C 83 % 1020,1 hPa 0,0 l/m 2,9 km/h (1 Bft) O 90 7,1 C 9,8 C
08.05.2012 01:26 9,7 C 83 % 1020,1 hPa 0,0 l/m 3,2 km/h (1 Bft) O 90 7,0 C 9,7 C
08.05.2012 01:31 9,6 C 82 % 1020,1 hPa 0,0 l/m 3,6 km/h (1 Bft) O 90 6,7 C 9,6 C
08.05.2012 01:36 9,6 C 82 % 1020,1 hPa 0,0 l/m 1,4 km/h (1 Bft) O-NO 67 6,7 C 9,6 C
08.05.2012 01:41 9,5 C 82 % 1019,9 hPa 0,0 l/m 2,5 km/h (1 Bft) O 90 6,6 C 9,5 C
08.05.2012 01:46 9,5 C 82 % 1020,0 hPa 0,0 l/m 2,5 km/h (1 Bft) O 90 6,6 C 9,5 C
08.05.2012 01:51 9,4 C 83 % 1019,8 hPa 0,0 l/m 4,3 km/h (1 Bft) O 90 6,7 C 9,4 C
08.05.2012 01:56 9,4 C 82 % 1019,9 hPa 0,0 l/m 4,3 km/h (1 Bft) O-NO 67 6,5 C 9,4 C
08.05.2012 02:01 9,3 C 83 % 1020,0 hPa 0,0 l/m 4,0 km/h (1 Bft) O 90 6,6 C 9,3 C
08.05.2012 02:06 9,3 C 83 % 1019,8 hPa 0,0 l/m 2,2 km/h (1 Bft) O 90 6,6 C 9,3 C
08.05.2012 02:11 9,2 C 83 % 1019,8 hPa 0,0 l/m 2,5 km/h (1 Bft) O-NO 67 6,5 C 9,2 C
08.05.2012 02:16 9,2 C 83 % 1019,8 hPa 0,0 l/m 0,0 km/h (0 Bft) O-NO 67 6,5 C 9,2 C
08.05.2012 02:21 9,2 C 83 % 1019,9 hPa 0,0 l/m 2,2 km/h (1 Bft) O-NO 67 6,5 C 9,2 C
08.05.2012 02:26 9,1 C 83 % 1019,9 hPa 0,0 l/m 1,1 km/h (1 Bft) O-SO 112 6,4 C 9,1 C
08.05.2012 02:31 9,1 C 83 % 1019,8 hPa 0,0 l/m 0,0 km/h (0 Bft) O-NO 67 6,4 C 9,1 C
08.05.2012 02:36 9,1 C 83 % 1019,8 hPa 0,0 l/m 4,0 km/h (1 Bft) O-NO 67 6,4 C 9,1 C
08.05.2012 02:41 9,1 C 83 % 1019,7 hPa 0,0 l/m 3,6 km/h (1 Bft) O 90 6,4 C 9,1 C
08.05.2012 02:46 9,1 C 83 % 1019,6 hPa 0,0 l/m 0,0 km/h (0 Bft) O-SO 112 6,4 C 9,1 C
08.05.2012 02:51 9,1 C 83 % 1019,6 hPa 0,0 l/m 2,9 km/h (1 Bft) O-SO 112 6,4 C 9,1 C
08.05.2012 02:56 9,1 C 83 % 1019,6 hPa 0,0 l/m 1,4 km/h (1 Bft) O-SO 112 6,4 C 9,1 C
08.05.2012 03:01 9,1 C 83 % 1019,5 hPa 0,0 l/m 1,8 km/h (1 Bft) O 90 6,4 C 9,1 C
08.05.2012 03:06 9,0 C 83 % 1019,5 hPa 0,0 l/m 4,3 km/h (1 Bft) O 90 6,3 C 9,0 C
08.05.2012 03:11 8,9 C 83 % 1019,6 hPa 0,0 l/m 3,2 km/h (1 Bft) O 90 6,2 C 8,9 C
08.05.2012 03:16 8,9 C 83 % 1019,5 hPa 0,0 l/m 3,6 km/h (1 Bft) O-NO 67 6,2 C 8,9 C
08.05.2012 03:21 8,9 C 83 % 1019,6 hPa 0,0 l/m 3,2 km/h (1 Bft) O-SO 112 6,2 C 8,9 C
08.05.2012 03:26 8,8 C 83 % 1019,5 hPa 0,0 l/m 5,4 km/h (1 Bft) O-NO 67 6,1 C 8,3 C
08.05.2012 03:31 8,7 C 83 % 1019,5 hPa 0,0 l/m 7,2 km/h (2 Bft) O-NO 67 6,0 C 7,7 C
08.05.2012 03:36 8,7 C 84 % 1019,5 hPa 0,0 l/m 4,7 km/h (1 Bft) SO 135 6,2 C 8,4 C
08.05.2012 03:41 8,7 C 84 % 1019,6 hPa 0,0 l/m 2,5 km/h (1 Bft) SO 135 6,2 C 8,7 C
08.05.2012 03:46 8,7 C 84 % 1019,6 hPa 0,0 l/m 0,0 km/h (0 Bft) O-SO 112 6,2 C 8,7 C
08.05.2012 03:51 8,8 C 84 % 1019,6 hPa 0,0 l/m 1,8 km/h (1 Bft) SO 135 6,2 C 8,8 C
08.05.2012 03:56 8,8 C 84 % 1019,4 hPa 0,0 l/m 1,1 km/h (1 Bft) O-SO 112 6,2 C 8,8 C
08.05.2012 04:01 8,7 C 84 % 1019,4 hPa 0,0 l/m 0,0 km/h (0 Bft) O 90 6,2 C 8,7 C
08.05.2012 04:06 8,7 C 84 % 1019,3 hPa 0,0 l/m 2,9 km/h (1 Bft) O-SO 112 6,2 C 8,7 C
08.05.2012 04:11 8,7 C 84 % 1019,4 hPa 0,0 l/m 2,5 km/h (1 Bft) O 90 6,2 C 8,7 C
08.05.2012 04:16 8,7 C 84 % 1019,4 hPa 0,0 l/m 0,0 km/h (0 Bft) O 90 6,2 C 8,7 C
08.05.2012 04:21 8,8 C 84 % 1019,4 hPa 0,0 l/m 1,4 km/h (1 Bft) O 90 6,2 C 8,8 C
08.05.2012 04:26 8,8 C 84 % 1019,3 hPa 0,0 l/m 1,4 km/h (1 Bft) O 90 6,2 C 8,8 C
08.05.2012 04:31 8,8 C 84 % 1019,4 hPa 0,0 l/m 2,9 km/h (1 Bft) O-SO 112 6,2 C 8,8 C
08.05.2012 04:36 8,8 C 84 % 1019,5 hPa 0,0 l/m 0,0 km/h (0 Bft) O-NO 67 6,2 C 8,8 C
08.05.2012 04:41 8,8 C 84 % 1019,5 hPa 0,0 l/m 2,2 km/h (1 Bft) O 90 6,2 C 8,8 C
08.05.2012 04:46 8,8 C 84 % 1019,5 hPa 0,0 l/m 3,6 km/h (1 Bft) O 90 6,2 C 8,8 C
08.05.2012 04:51 8,7 C 84 % 1019,4 hPa 0,0 l/m 3,2 km/h (1 Bft) O-SO 112 6,2 C 8,7 C
08.05.2012 04:56 8,7 C 84 % 1019,4 hPa 0,0 l/m 2,5 km/h (1 Bft) O-SO 112 6,2 C 8,7 C
08.05.2012 05:01 8,8 C 84 % 1019,3 hPa 0,0 l/m 3,2 km/h (1 Bft) O 90 6,2 C 8,8 C
08.05.2012 05:06 8,8 C 84 % 1019,3 hPa 0,0 l/m 2,2 km/h (1 Bft) O 90 6,2 C 8,8 C
08.05.2012 05:11 8,8 C 84 % 1019,3 hPa 0,0 l/m 2,9 km/h (1 Bft) SO 135 6,2 C 8,8 C
08.05.2012 05:16 8,8 C 84 % 1019,2 hPa 0,0 l/m 4,3 km/h (1 Bft) O 90 6,2 C 8,8 C
08.05.2012 05:21 8,8 C 84 % 1019,0 hPa 0,0 l/m 2,9 km/h (1 Bft) O 90 6,2 C 8,8 C
08.05.2012 05:26 8,8 C 84 % 1019,0 hPa 0,0 l/m 4,3 km/h (1 Bft) O 90 6,2 C 8,8 C
08.05.2012 05:31 8,8 C 84 % 1019,1 hPa 0,0 l/m 0,0 km/h (0 Bft) O-SO 112 6,2 C 8,8 C
08.05.2012 05:36 8,9 C 85 % 1019,0 hPa 0,0 l/m 4,7 km/h (1 Bft) O 90 6,5 C 8,6 C
08.05.2012 05:41 8,9 C 85 % 1019,1 hPa 0,0 l/m 4,7 km/h (1 Bft) O 90 6,5 C 8,6 C
08.05.2012 05:46 8,9 C 85 % 1019,0 hPa 0,0 l/m 6,1 km/h (2 Bft) O-SO 112 6,5 C 8,2 C
08.05.2012 05:51 8,9 C 85 % 1019,0 hPa 0,0 l/m 2,2 km/h (1 Bft) O 90 6,5 C 8,9 C
08.05.2012 05:56 8,9 C 85 % 1018,9 hPa 0,0 l/m 4,0 km/h (1 Bft) O 90 6,5 C 8,9 C
08.05.2012 06:01 8,9 C 85 % 1018,8 hPa 0,0 l/m 2,5 km/h (1 Bft) O 90 6,5 C 8,9 C
08.05.2012 06:06 8,9 C 85 % 1018,8 hPa 0,0 l/m 3,6 km/h (1 Bft) O 90 6,5 C 8,9 C
08.05.2012 06:11 8,9 C 85 % 1018,7 hPa 0,0 l/m 5,8 km/h (2 Bft) O 90 6,5 C 8,3 C
08.05.2012 06:16 8,9 C 85 % 1018,6 hPa 0,0 l/m 3,2 km/h (1 Bft) O-NO 67 6,5 C 8,9 C
08.05.2012 06:21 8,9 C 86 % 1018,6 hPa 0,0 l/m 3,6 km/h (1 Bft) O 90 6,7 C 8,9 C
08.05.2012 06:26 9,0 C 86 % 1018,6 hPa 0,0 l/m 3,2 km/h (1 Bft) O-SO 112 6,8 C 9,0 C
08.05.2012 06:31 9,0 C 86 % 1018,6 hPa 0,0 l/m 0,0 km/h (0 Bft) O 90 6,8 C 9,0 C
08.05.2012 06:36 9,1 C 86 % 1018,5 hPa 0,0 l/m 6,1 km/h (2 Bft) O-NO 67 6,9 C 8,4 C
08.05.2012 06:41 9,1 C 86 % 1018,6 hPa 0,0 l/m 5,8 km/h (2 Bft) O 90 6,9 C 8,5 C
08.05.2012 06:46 9,1 C 86 % 1018,7 hPa 0,0 l/m 4,3 km/h (1 Bft) O 90 6,9 C 9,1 C
08.05.2012 06:51 9,1 C 86 % 1018,8 hPa 0,0 l/m 4,0 km/h (1 Bft) O-SO 112 6,9 C 9,1 C
08.05.2012 06:56 9,1 C 86 % 1018,6 hPa 0,0 l/m 7,6 km/h (2 Bft) O 90 6,9 C 8,0 C
08.05.2012 07:01 9,1 C 86 % 1018,7 hPa 0,0 l/m 0,0 km/h (0 Bft) O-SO 112 6,9 C 9,1 C
08.05.2012 07:06 9,2 C 86 % 1018,7 hPa 0,0 l/m 4,0 km/h (1 Bft) O 90 7,0 C 9,2 C
08.05.2012 07:11 9,3 C 86 % 1018,8 hPa 0,0 l/m 5,8 km/h (2 Bft) O-SO 112 7,1 C 8,7 C
08.05.2012 07:16 9,3 C 86 % 1018,7 hPa 0,0 l/m 2,2 km/h (1 Bft) O-SO 112 7,1 C 9,3 C
08.05.2012 07:21 9,4 C 86 % 1018,8 hPa 0,0 l/m 4,7 km/h (1 Bft) O-SO 112 7,2 C 9,2 C
08.05.2012 07:26 9,5 C 86 % 1018,9 hPa 0,0 l/m 2,5 km/h (1 Bft) O 90 7,3 C 9,5 C
08.05.2012 07:31 9,6 C 86 % 1018,9 hPa 0,0 l/m 5,0 km/h (1 Bft) SO 135 7,4 C 9,3 C
08.05.2012 07:36 9,8 C 86 % 1018,8 hPa 0,0 l/m 2,2 km/h (1 Bft) O-SO 112 7,6 C 9,8 C
08.05.2012 07:41 9,9 C 86 % 1018,7 hPa 0,0 l/m 6,1 km/h (2 Bft) SO 135 7,7 C 9,3 C
08.05.2012 07:46 10,1 C 86 % 1018,7 hPa 0,0 l/m 3,2 km/h (1 Bft) O-SO 112 7,9 C 10,1 C
08.05.2012 07:51 10,3 C 86 % 1018,6 hPa 0,0 l/m 4,0 km/h (1 Bft) SO 135 8,1 C 10,3 C
08.05.2012 07:56 10,5 C 85 % 1018,6 hPa 0,0 l/m 5,4 km/h (1 Bft) O-SO 112 8,1 C 10,5 C
08.05.2012 08:01 10,7 C 86 % 1018,6 hPa 0,0 l/m 3,6 km/h (1 Bft) S-SO 157 8,5 C 10,7 C
08.05.2012 08:06 10,8 C 85 % 1018,5 hPa 0,0 l/m 0,0 km/h (0 Bft) SO 135 8,4 C 10,8 C
08.05.2012 08:11 10,9 C 84 % 1018,5 hPa 0,0 l/m 5,8 km/h (2 Bft) SO 135 8,3 C 10,9 C
08.05.2012 08:16 11,0 C 84 % 1018,5 hPa 0,0 l/m 0,0 km/h (0 Bft) O-SO 112 8,4 C 11,0 C
08.05.2012 08:21 11,1 C 84 % 1018,5 hPa 0,0 l/m 2,9 km/h (1 Bft) SO 135 8,5 C 11,1 C
08.05.2012 08:26 11,3 C 83 % 1018,5 hPa 0,0 l/m 0,0 km/h (0 Bft) O-SO 112 8,5 C 11,3 C
08.05.2012 08:31 11,4 C 83 % 1018,4 hPa 0,0 l/m 0,0 km/h (0 Bft) SO 135 8,6 C 11,4 C
08.05.2012 08:36 11,6 C 83 % 1018,5 hPa 0,0 l/m 5,4 km/h (1 Bft) S-SO 157 8,8 C 11,6 C
08.05.2012 08:41 11,7 C 82 % 1018,5 hPa 0,0 l/m 6,1 km/h (2 Bft) SO 135 8,7 C 11,7 C
08.05.2012 08:46 11,9 C 82 % 1018,6 hPa 0,0 l/m 4,7 km/h (1 Bft) S 180 8,9 C 11,9 C
08.05.2012 08:51 12,0 C 82 % 1018,6 hPa 0,0 l/m 3,2 km/h (1 Bft) SO 135 9,0 C 12,0 C
08.05.2012 08:56 12,3 C 81 % 1018,5 hPa 0,0 l/m 9,4 km/h (2 Bft) S 180 9,1 C 12,3 C
08.05.2012 09:01 12,5 C 81 % 1018,5 hPa 0,0 l/m 5,8 km/h (2 Bft) SO 135 9,3 C 12,5 C
08.05.2012 09:06 12,9 C 80 % 1018,5 hPa 0,0 l/m 8,3 km/h (2 Bft) S-SW 202 9,5 C 12,9 C
08.05.2012 09:11 13,1 C 79 % 1018,2 hPa 0,0 l/m 8,6 km/h (2 Bft) S-SO 157 9,5 C 13,1 C
08.05.2012 09:16 13,1 C 78 % 1018,2 hPa 0,0 l/m 7,2 km/h (2 Bft) S-SO 157 9,4 C 13,1 C
08.05.2012 09:21 13,3 C 78 % 1018,3 hPa 0,0 l/m 5,8 km/h (2 Bft) S 180 9,5 C 13,3 C
08.05.2012 09:26 13,4 C 78 % 1018,4 hPa 0,0 l/m 5,8 km/h (2 Bft) S-SW 202 9,6 C 13,4 C
08.05.2012 09:31 13,6 C 77 % 1018,3 hPa 0,0 l/m 8,3 km/h (2 Bft) S 180 9,6 C 13,6 C
08.05.2012 09:36 13,9 C 77 % 1018,4 hPa 0,0 l/m 14,0 km/h (3 Bft) S 180 9,9 C 13,9 C
08.05.2012 09:41 14,3 C 76 % 1018,2 hPa 0,0 l/m 5,0 km/h (1 Bft) S-SO 157 10,1 C 14,3 C
08.05.2012 09:46 14,6 C 75 % 1018,3 hPa 0,0 l/m 7,2 km/h (2 Bft) S 180 10,2 C 14,6 C
08.05.2012 09:51 14,8 C 74 % 1018,1 hPa 0,0 l/m 10,8 km/h (2 Bft) S-SO 157 10,2 C 14,8 C
08.05.2012 09:56 14,9 C 72 % 1018,1 hPa 0,0 l/m 6,1 km/h (2 Bft) SW 225 9,9 C 14,9 C
08.05.2012 10:01 14,9 C 72 % 1018,1 hPa 0,0 l/m 8,6 km/h (2 Bft) S 180 9,9 C 14,9 C
08.05.2012 10:06 14,9 C 72 % 1018,0 hPa 0,0 l/m 12,2 km/h (2 Bft) S-SO 157 9,9 C 14,9 C
08.05.2012 10:11 15,0 C 72 % 1018,1 hPa 0,0 l/m 6,1 km/h (2 Bft) S 180 10,0 C 15,0 C
08.05.2012 10:16 15,2 C 71 % 1018,0 hPa 0,0 l/m 10,1 km/h (2 Bft) SO 135 10,0 C 15,2 C
08.05.2012 10:21 15,3 C 70 % 1018,0 hPa 0,0 l/m 9,4 km/h (2 Bft) S-SO 157 9,9 C 15,3 C
08.05.2012 10:26 15,5 C 70 % 1018,0 hPa 0,0 l/m 8,6 km/h (2 Bft) S 180 10,1 C 15,5 C
08.05.2012 10:31 15,6 C 69 % 1018,1 hPa 0,0 l/m 12,2 km/h (2 Bft) S-SW 202 9,9 C 15,6 C
08.05.2012 10:36 15,6 C 69 % 1017,9 hPa 0,0 l/m 6,8 km/h (2 Bft) S-SO 157 9,9 C 15,6 C
08.05.2012 10:41 15,8 C 68 % 1017,9 hPa 0,0 l/m 6,1 km/h (2 Bft) S-SO 157 9,9 C 15,8 C
08.05.2012 10:46 15,9 C 68 % 1017,9 hPa 0,0 l/m 4,0 km/h (1 Bft) SW 225 10,0 C 15,9 C
08.05.2012 10:51 16,1 C 67 % 1017,8 hPa 0,0 l/m 6,5 km/h (2 Bft) S-SO 157 10,0 C 16,1 C
08.05.2012 10:56 16,4 C 67 % 1017,8 hPa 0,0 l/m 3,6 km/h (1 Bft) S-SW 202 10,3 C 16,4 C
08.05.2012 11:01 16,6 C 66 % 1017,8 hPa 0,0 l/m 6,1 km/h (2 Bft) S-SO 157 10,2 C 16,6 C
08.05.2012 11:06 16,8 C 64 % 1017,7 hPa 0,0 l/m 4,3 km/h (1 Bft) O-SO 112 10,0 C 16,8 C
08.05.2012 11:11 17,0 C 63 % 1017,6 hPa 0,0 l/m 7,6 km/h (2 Bft) S-SO 157 9,9 C 17,0 C
08.05.2012 11:16 17,2 C 62 % 1017,6 hPa 0,0 l/m 4,7 km/h (1 Bft) SW 225 9,9 C 17,2 C
08.05.2012 11:21 17,3 C 57 % 1017,5 hPa 0,0 l/m 11,9 km/h (2 Bft) S-SW 202 8,7 C 17,3 C
08.05.2012 11:26 17,6 C 56 % 1017,4 hPa 0,0 l/m 6,1 km/h (2 Bft) SO 135 8,7 C 17,6 C
08.05.2012 11:31 17,8 C 54 % 1017,4 hPa 0,0 l/m 15,8 km/h (3 Bft) SO 135 8,4 C 17,8 C
08.05.2012 11:36 17,9 C 53 % 1017,3 hPa 0,0 l/m 9,0 km/h (2 Bft) S-SO 157 8,2 C 17,9 C
08.05.2012 11:41 17,9 C 51 % 1017,4 hPa 0,0 l/m 9,4 km/h (2 Bft) S 180 7,6 C 17,9 C
08.05.2012 11:46 17,9 C 51 % 1017,3 hPa 0,0 l/m 7,6 km/h (2 Bft) S-SO 157 7,6 C 17,9 C
08.05.2012 11:51 17,9 C 52 % 1017,3 hPa 0,0 l/m 3,6 km/h (1 Bft) S-SO 157 7,9 C 17,9 C
08.05.2012 11:56 18,0 C 51 % 1017,2 hPa 0,0 l/m 6,1 km/h (2 Bft) S-SW 202 7,7 C 18,0 C
08.05.2012 12:01 18,2 C 51 % 1017,3 hPa 0,0 l/m 7,6 km/h (2 Bft) S 180 7,9 C 18,2 C
08.05.2012 12:06 18,3 C 51 % 1017,1 hPa 0,0 l/m 7,2 km/h (2 Bft) S 180 8,0 C 18,3 C
08.05.2012 12:11 18,4 C 51 % 1017,1 hPa 0,0 l/m 4,0 km/h (1 Bft) SO 135 8,1 C 18,4 C
08.05.2012 12:16 18,6 C 51 % 1017,0 hPa 0,0 l/m 5,0 km/h (1 Bft) S-SO 157 8,3 C 18,6 C
08.05.2012 12:21 18,6 C 51 % 1017,0 hPa 0,0 l/m 8,6 km/h (2 Bft) SW 225 8,3 C 18,6 C
08.05.2012 12:26 18,6 C 50 % 1016,9 hPa 0,0 l/m 9,4 km/h (2 Bft) S 180 8,0 C 18,6 C
08.05.2012 12:31 18,6 C 49 % 1016,8 hPa 0,0 l/m 18,0 km/h (3 Bft) S 180 7,7 C 18,6 C
08.05.2012 12:36 18,8 C 49 % 1016,8 hPa 0,0 l/m 11,5 km/h (2 Bft) S-SO 157 7,9 C 18,8 C
08.05.2012 12:41 18,9 C 50 % 1016,7 hPa 0,0 l/m 10,1 km/h (2 Bft) S-SW 202 8,2 C 18,9 C
08.05.2012 12:46 18,9 C 49 % 1016,7 hPa 0,0 l/m 13,3 km/h (3 Bft) SW 225 7,9 C 18,9 C
08.05.2012 12:51 18,9 C 49 % 1016,6 hPa 0,0 l/m 3,2 km/h (1 Bft) S-SW 202 7,9 C 18,9 C
08.05.2012 12:56 18,9 C 49 % 1016,7 hPa 0,0 l/m 7,2 km/h (2 Bft) SO 135 7,9 C 18,9 C
08.05.2012 13:01 18,8 C 50 % 1016,5 hPa 0,0 l/m 10,1 km/h (2 Bft) S-SW 202 8,2 C 18,8 C
08.05.2012 13:06 18,9 C 50 % 1016,4 hPa 0,0 l/m 8,3 km/h (2 Bft) S-SO 157 8,2 C 18,9 C
08.05.2012 13:11 19,0 C 49 % 1016,3 hPa 0,0 l/m 9,7 km/h (2 Bft) S-SW 202 8,0 C 19,0 C
08.05.2012 13:16 19,3 C 49 % 1016,4 hPa 0,0 l/m 6,1 km/h (2 Bft) W-SW 247 8,3 C 19,3 C
08.05.2012 13:21 19,5 C 49 % 1016,4 hPa 0,0 l/m 17,6 km/h (3 Bft) SO 135 8,5 C 19,5 C
08.05.2012 13:26 19,7 C 48 % 1016,4 hPa 0,0 l/m 8,6 km/h (2 Bft) S-SO 157 8,4 C 19,7 C
08.05.2012 13:31 19,8 C 47 % 1016,4 hPa 0,0 l/m 3,6 km/h (1 Bft) O-SO 112 8,2 C 19,8 C
08.05.2012 13:36 19,9 C 46 % 1016,4 hPa 0,0 l/m 11,2 km/h (2 Bft) SO 135 7,9 C 19,9 C
08.05.2012 13:41 20,1 C 46 % 1016,4 hPa 0,0 l/m 13,3 km/h (3 Bft) SW 225 8,1 C 20,1 C
08.05.2012 13:46 20,2 C 45 % 1016,3 hPa 0,0 l/m 11,5 km/h (2 Bft) S 180 7,9 C 20,2 C
08.05.2012 13:51 20,2 C 45 % 1016,3 hPa 0,0 l/m 19,1 km/h (3 Bft) S 180 7,9 C 20,2 C
08.05.2012 13:56 20,0 C 45 % 1016,3 hPa 0,0 l/m 7,2 km/h (2 Bft) S 180 7,7 C 20,0 C
08.05.2012 14:01 19,9 C 45 % 1016,3 hPa 0,0 l/m 9,0 km/h (2 Bft) SW 225 7,6 C 19,9 C
08.05.2012 14:06 20,0 C 45 % 1016,3 hPa 0,0 l/m 11,9 km/h (2 Bft) W-SW 247 7,7 C 20,0 C
08.05.2012 14:11 19,9 C 45 % 1016,2 hPa 0,0 l/m 8,6 km/h (2 Bft) S-SO 157 7,6 C 19,9 C
08.05.2012 14:16 19,9 C 45 % 1016,1 hPa 0,0 l/m 3,6 km/h (1 Bft) S-SW 202 7,6 C 19,9 C
08.05.2012 14:21 19,9 C 45 % 1016,0 hPa 0,0 l/m 0,0 km/h (0 Bft) S-SW 202 7,6 C 19,9 C
08.05.2012 14:26 20,1 C 45 % 1016,1 hPa 0,0 l/m 7,6 km/h (2 Bft) SO 135 7,8 C 20,1 C
08.05.2012 14:31 20,2 C 44 % 1016,2 hPa 0,0 l/m 8,6 km/h (2 Bft) N-NO 22 7,6 C 20,2 C
08.05.2012 14:36 20,1 C 44 % 1016,0 hPa 0,0 l/m 10,1 km/h (2 Bft) S-SO 157 7,5 C 20,1 C
08.05.2012 14:41 19,8 C 45 % 1016,0 hPa 0,0 l/m 4,7 km/h (1 Bft) S-SW 202 7,5 C 19,8 C
08.05.2012 14:46 19,8 C 45 % 1015,9 hPa 0,0 l/m 14,0 km/h (3 Bft) S-SO 157 7,5 C 19,8 C
08.05.2012 14:51 19,6 C 46 % 1015,6 hPa 0,0 l/m 13,3 km/h (3 Bft) S-SW 202 7,7 C 19,6 C
08.05.2012 14:56 19,6 C 46 % 1015,6 hPa 0,0 l/m 3,2 km/h (1 Bft) SO 135 7,7 C 19,6 C
08.05.2012 15:01 19,9 C 47 % 1015,6 hPa 0,0 l/m 7,2 km/h (2 Bft) S 180 8,3 C 19,9 C
08.05.2012 15:06 20,4 C 46 % 1015,6 hPa 0,0 l/m 6,8 km/h (2 Bft) S 180 8,4 C 20,4 C
08.05.2012 15:11 20,5 C 45 % 1015,6 hPa 0,0 l/m 6,8 km/h (2 Bft) SO 135 8,2 C 20,5 C
08.05.2012 15:16 20,4 C 45 % 1015,6 hPa 0,0 l/m 11,2 km/h (2 Bft) S-SW 202 8,1 C 20,4 C
08.05.2012 15:21 20,4 C 46 % 1015,4 hPa 0,0 l/m 4,0 km/h (1 Bft) S 180 8,4 C 20,4 C
08.05.2012 15:26 20,3 C 45 % 1015,5 hPa 0,0 l/m 15,1 km/h (3 Bft) W-SW 247 8,0 C 20,3 C
08.05.2012 15:31 20,1 C 45 % 1015,3 hPa 0,0 l/m 6,1 km/h (2 Bft) S-SO 157 7,8 C 20,1 C
08.05.2012 15:36 20,3 C 45 % 1015,4 hPa 0,0 l/m 12,2 km/h (2 Bft) SW 225 8,0 C 20,3 C
08.05.2012 15:41 20,4 C 44 % 1015,4 hPa 0,0 l/m 4,3 km/h (1 Bft) S-SO 157 7,7 C 20,4 C
08.05.2012 15:46 20,4 C 44 % 1015,3 hPa 0,0 l/m 12,6 km/h (3 Bft) S-SO 157 7,7 C 20,4 C
08.05.2012 15:51 20,3 C 45 % 1015,4 hPa 0,0 l/m 14,8 km/h (3 Bft) S 180 8,0 C 20,3 C
08.05.2012 15:56 20,3 C 45 % 1015,0 hPa 0,0 l/m 4,0 km/h (1 Bft) SO 135 8,0 C 20,3 C
08.05.2012 16:01 20,3 C 45 % 1015,0 hPa 0,0 l/m 14,4 km/h (3 Bft) S-SO 157 8,0 C 20,3 C
08.05.2012 16:06 20,3 C 45 % 1015,1 hPa 0,0 l/m 11,9 km/h (2 Bft) S-SO 157 8,0 C 20,3 C
08.05.2012 16:11 20,1 C 44 % 1015,0 hPa 0,0 l/m 2,2 km/h (1 Bft) SO 135 7,5 C 20,1 C
08.05.2012 16:16 20,1 C 45 % 1014,9 hPa 0,0 l/m 7,6 km/h (2 Bft) S-SO 157 7,8 C 20,1 C
08.05.2012 16:21 20,4 C 45 % 1014,8 hPa 0,0 l/m 12,2 km/h (2 Bft) SO 135 8,1 C 20,4 C
08.05.2012 16:26 20,5 C 45 % 1014,7 hPa 0,0 l/m 7,6 km/h (2 Bft) W-SW 247 8,2 C 20,5 C
08.05.2012 16:31 20,8 C 44 % 1014,6 hPa 0,0 l/m 7,2 km/h (2 Bft) S-SO 157 8,1 C 20,8 C
08.05.2012 16:36 21,0 C 44 % 1014,7 hPa 0,0 l/m 14,0 km/h (3 Bft) SO 135 8,3 C 21,0 C
08.05.2012 16:41 21,1 C 44 % 1014,7 hPa 0,0 l/m 9,4 km/h (2 Bft) SO 135 8,4 C 21,1 C
08.05.2012 16:46 21,3 C 43 % 1014,6 hPa 0,0 l/m 2,5 km/h (1 Bft) S 180 8,2 C 21,3 C
08.05.2012 16:51 21,2 C 43 % 1014,7 hPa 0,0 l/m 10,8 km/h (2 Bft) S 180 8,1 C 21,2 C
08.05.2012 16:56 21,2 C 43 % 1014,6 hPa 0,0 l/m 5,0 km/h (1 Bft) S-SO 157 8,1 C 21,2 C
08.05.2012 17:01 21,0 C 43 % 1014,6 hPa 0,0 l/m 4,0 km/h (1 Bft) S 180 7,9 C 21,0 C
08.05.2012 17:06 20,8 C 43 % 1014,7 hPa 0,0 l/m 8,3 km/h (2 Bft) S 180 7,8 C 20,8 C
08.05.2012 17:11 20,6 C 44 % 1014,5 hPa 0,0 l/m 6,5 km/h (2 Bft) S 180 7,9 C 20,6 C
08.05.2012 17:16 20,4 C 45 % 1014,6 hPa 0,0 l/m 7,6 km/h (2 Bft) S 180 8,1 C 20,4 C
08.05.2012 17:21 20,3 C 45 % 1014,5 hPa 0,0 l/m 6,8 km/h (2 Bft) S 180 8,0 C 20,3 C
08.05.2012 17:26 20,1 C 45 % 1014,6 hPa 0,0 l/m 11,2 km/h (2 Bft) S 180 7,8 C 20,1 C
08.05.2012 17:31 20,1 C 46 % 1014,4 hPa 0,0 l/m 4,0 km/h (1 Bft) O-SO 112 8,1 C 20,1 C
08.05.2012 17:36 20,1 C 46 % 1014,5 hPa 0,0 l/m 5,4 km/h (1 Bft) S-SO 157 8,1 C 20,1 C
08.05.2012 17:41 20,2 C 46 % 1014,3 hPa 0,0 l/m 0,0 km/h (0 Bft) S-SO 157 8,2 C 20,2 C
08.05.2012 17:46 20,3 C 47 % 1014,4 hPa 0,0 l/m 4,7 km/h (1 Bft) S-SO 157 8,6 C 20,3 C
08.05.2012 17:51 20,4 C 46 % 1014,3 hPa 0,0 l/m 14,4 km/h (3 Bft) SO 135 8,4 C 20,4 C
08.05.2012 17:56 20,4 C 45 % 1014,5 hPa 0,0 l/m 2,2 km/h (1 Bft) SO 135 8,1 C 20,4 C
08.05.2012 18:01 20,5 C 45 % 1014,4 hPa 0,0 l/m 7,6 km/h (2 Bft) S-SO 157 8,2 C 20,5 C
08.05.2012 18:06 20,5 C 45 % 1014,3 hPa 0,0 l/m 9,7 km/h (2 Bft) SO 135 8,2 C 20,5 C
08.05.2012 18:11 20,4 C 46 % 1014,4 hPa 0,0 l/m 6,1 km/h (2 Bft) S-SW 202 8,4 C 20,4 C
08.05.2012 18:16 20,4 C 46 % 1014,3 hPa 0,0 l/m 4,3 km/h (1 Bft) SO 135 8,4 C 20,4 C
08.05.2012 18:21 20,4 C 46 % 1014,0 hPa 0,0 l/m 7,2 km/h (2 Bft) S 180 8,4 C 20,4 C
08.05.2012 18:26 20,4 C 46 % 1013,9 hPa 0,0 l/m 5,8 km/h (2 Bft) S-SW 202 8,4 C 20,4 C
08.05.2012 18:31 20,4 C 47 % 1013,9 hPa 0,0 l/m 17,6 km/h (3 Bft) S-SO 157 8,7 C 20,4 C
08.05.2012 18:36 20,3 C 47 % 1014,0 hPa 0,0 l/m 7,9 km/h (2 Bft) S 180 8,6 C 20,3 C
08.05.2012 18:41 20,2 C 47 % 1014,0 hPa 0,0 l/m 8,3 km/h (2 Bft) S-SW 202 8,5 C 20,2 C
08.05.2012 18:46 20,2 C 48 % 1014,0 hPa 0,0 l/m 4,7 km/h (1 Bft) S-SW 202 8,8 C 20,2 C
08.05.2012 18:51 20,1 C 49 % 1014,0 hPa 0,0 l/m 3,6 km/h (1 Bft) S-SO 157 9,0 C 20,1 C
08.05.2012 18:56 20,1 C 48 % 1014,0 hPa 0,0 l/m 13,0 km/h (3 Bft) SO 135 8,7 C 20,1 C
08.05.2012 19:01 20,1 C 47 % 1013,9 hPa 0,0 l/m 3,6 km/h (1 Bft) SO 135 8,4 C 20,1 C
08.05.2012 19:06 20,1 C 46 % 1013,9 hPa 0,0 l/m 1,4 km/h (1 Bft) SO 135 8,1 C 20,1 C
08.05.2012 19:11 20,1 C 46 % 1013,9 hPa 0,0 l/m 7,2 km/h (2 Bft) SO 135 8,1 C 20,1 C
08.05.2012 19:16 20,1 C 46 % 1013,8 hPa 0,0 l/m 3,2 km/h (1 Bft) O-SO 112 8,1 C 20,1 C
08.05.2012 19:21 20,3 C 46 % 1013,9 hPa 0,0 l/m 5,0 km/h (1 Bft) S 180 8,3 C 20,3 C
08.05.2012 19:26 20,3 C 46 % 1013,9 hPa 0,0 l/m 14,4 km/h (3 Bft) S 180 8,3 C 20,3 C
08.05.2012 19:31 20,2 C 46 % 1013,9 hPa 0,0 l/m 3,2 km/h (1 Bft) O-SO 112 8,2 C 20,2 C
08.05.2012 19:36 20,1 C 47 % 1013,9 hPa 0,0 l/m 1,8 km/h (1 Bft) S-SO 157 8,4 C 20,1 C
08.05.2012 19:41 19,9 C 47 % 1013,8 hPa 0,0 l/m 5,8 km/h (2 Bft) S-SO 157 8,3 C 19,9 C
08.05.2012 19:46 19,9 C 47 % 1013,7 hPa 0,0 l/m 4,7 km/h (1 Bft) S 180 8,3 C 19,9 C
08.05.2012 19:51 19,6 C 47 % 1013,9 hPa 0,0 l/m 2,5 km/h (1 Bft) SO 135 8,0 C 19,6 C
08.05.2012 19:56 19,4 C 48 % 1014,0 hPa 0,0 l/m 2,5 km/h (1 Bft) O-SO 112 8,1 C 19,4 C
08.05.2012 20:01 19,1 C 49 % 1013,9 hPa 0,0 l/m 5,0 km/h (1 Bft) SO 135 8,1 C 19,1 C
08.05.2012 20:06 18,9 C 50 % 1013,9 hPa 0,0 l/m 5,0 km/h (1 Bft) S-SO 157 8,2 C 18,9 C
08.05.2012 20:11 18,7 C 50 % 1013,8 hPa 0,0 l/m 5,8 km/h (2 Bft) O-SO 112 8,1 C 18,7 C
08.05.2012 20:16 18,5 C 51 % 1013,9 hPa 0,0 l/m 2,5 km/h (1 Bft) SO 135 8,2 C 18,5 C
08.05.2012 20:21 18,4 C 51 % 1013,9 hPa 0,0 l/m 0,0 km/h (0 Bft) O-SO 112 8,1 C 18,4 C
08.05.2012 20:26 18,1 C 52 % 1013,8 hPa 0,0 l/m 0,0 km/h (0 Bft) O-SO 112 8,1 C 18,1 C
08.05.2012 20:31 17,9 C 53 % 1013,8 hPa 0,0 l/m 3,2 km/h (1 Bft) SO 135 8,2 C 17,9 C
08.05.2012 20:36 17,6 C 54 % 1013,9 hPa 0,0 l/m 1,4 km/h (1 Bft) O 90 8,2 C 17,6 C
08.05.2012 20:41 17,5 C 55 % 1013,9 hPa 0,0 l/m 2,5 km/h (1 Bft) O-SO 112 8,4 C 17,5 C
08.05.2012 20:46 17,3 C 56 % 1013,8 hPa 0,0 l/m 5,0 km/h (1 Bft) O-SO 112 8,4 C 17,3 C
08.05.2012 20:51 17,1 C 56 % 1013,8 hPa 0,0 l/m 5,0 km/h (1 Bft) O-SO 112 8,3 C 17,1 C
08.05.2012 20:56 16,9 C 57 % 1013,8 hPa 0,0 l/m 4,0 km/h (1 Bft) O 90 8,3 C 16,9 C
08.05.2012 21:01 16,8 C 57 % 1013,9 hPa 0,0 l/m 4,0 km/h (1 Bft) O 90 8,2 C 16,8 C
08.05.2012 21:06 16,6 C 58 % 1014,0 hPa 0,0 l/m 2,5 km/h (1 Bft) O-SO 112 8,3 C 16,6 C
08.05.2012 21:11 16,5 C 59 % 1013,8 hPa 0,0 l/m 2,5 km/h (1 Bft) O 90 8,5 C 16,5 C
08.05.2012 21:16 16,4 C 59 % 1013,9 hPa 0,0 l/m 0,0 km/h (0 Bft) SO 135 8,4 C 16,4 C
08.05.2012 21:21 16,2 C 60 % 1013,8 hPa 0,0 l/m 1,4 km/h (1 Bft) O 90 8,4 C 16,2 C
08.05.2012 21:26 16,1 C 60 % 1013,9 hPa 0,0 l/m 2,5 km/h (1 Bft) O 90 8,3 C 16,1 C
08.05.2012 21:31 15,9 C 61 % 1013,9 hPa 0,0 l/m 2,9 km/h (1 Bft) O 90 8,4 C 15,9 C
08.05.2012 21:36 15,8 C 61 % 1013,8 hPa 0,0 l/m 2,5 km/h (1 Bft) O-SO 112 8,3 C 15,8 C
08.05.2012 21:41 15,6 C 62 % 1013,8 hPa 0,0 l/m 6,1 km/h (2 Bft) O-SO 112 8,3 C 15,6 C
08.05.2012 21:46 15,5 C 62 % 1013,9 hPa 0,0 l/m 6,1 km/h (2 Bft) SO 135 8,3 C 15,5 C
08.05.2012 21:51 15,4 C 62 % 1013,9 hPa 0,0 l/m 3,2 km/h (1 Bft) SO 135 8,2 C 15,4 C
08.05.2012 21:56 15,3 C 62 % 1013,8 hPa 0,0 l/m 6,1 km/h (2 Bft) S-SO 157 8,1 C 15,3 C
08.05.2012 22:01 15,3 C 63 % 1013,8 hPa 0,0 l/m 6,1 km/h (2 Bft) O-SO 112 8,3 C 15,3 C
08.05.2012 22:06 15,2 C 63 % 1013,8 hPa 0,0 l/m 6,1 km/h (2 Bft) O-SO 112 8,2 C 15,2 C
08.05.2012 22:11 14,9 C 63 % 1013,8 hPa 0,0 l/m 1,8 km/h (1 Bft) O-SO 112 7,9 C 14,9 C
08.05.2012 22:16 14,9 C 63 % 1013,7 hPa 0,0 l/m 3,2 km/h (1 Bft) O-SO 112 7,9 C 14,9 C
08.05.2012 22:21 14,9 C 64 % 1013,6 hPa 0,0 l/m 6,8 km/h (2 Bft) O-SO 112 8,2 C 14,9 C
08.05.2012 22:26 14,9 C 64 % 1013,7 hPa 0,0 l/m 2,5 km/h (1 Bft) SO 135 8,2 C 14,9 C
08.05.2012 22:31 14,9 C 64 % 1013,6 hPa 0,0 l/m 7,6 km/h (2 Bft) SO 135 8,2 C 14,9 C
08.05.2012 22:36 14,8 C 64 % 1013,8 hPa 0,0 l/m 4,0 km/h (1 Bft) SO 135 8,1 C 14,8 C
08.05.2012 22:41 14,7 C 64 % 1013,8 hPa 0,0 l/m 6,1 km/h (2 Bft) SO 135 8,0 C 14,7 C
08.05.2012 22:46 14,6 C 64 % 1013,7 hPa 0,0 l/m 6,1 km/h (2 Bft) SO 135 7,9 C 14,6 C
08.05.2012 22:51 14,6 C 64 % 1013,6 hPa 0,0 l/m 2,5 km/h (1 Bft) S-SO 157 7,9 C 14,6 C
08.05.2012 22:56 14,6 C 64 % 1013,8 hPa 0,0 l/m 3,2 km/h (1 Bft) S-SO 157 7,9 C 14,6 C
08.05.2012 23:01 14,6 C 64 % 1013,7 hPa 0,0 l/m 0,0 km/h (0 Bft) SO 135 7,9 C 14,6 C
08.05.2012 23:06 14,6 C 64 % 1013,7 hPa 0,0 l/m 4,0 km/h (1 Bft) O-SO 112 7,9 C 14,6 C
08.05.2012 23:11 14,4 C 65 % 1013,8 hPa 0,0 l/m 2,5 km/h (1 Bft) O-SO 112 7,9 C 14,4 C
08.05.2012 23:16 14,4 C 65 % 1013,8 hPa 0,0 l/m 3,2 km/h (1 Bft) O-SO 112 7,9 C 14,4 C
08.05.2012 23:21 14,3 C 65 % 1013,8 hPa 0,0 l/m 3,2 km/h (1 Bft) SO 135 7,8 C 14,3 C
08.05.2012 23:26 14,2 C 66 % 1013,7 hPa 0,0 l/m 1,4 km/h (1 Bft) O-SO 112 7,9 C 14,2 C
08.05.2012 23:31 14,1 C 66 % 1013,5 hPa 0,0 l/m 3,2 km/h (1 Bft) O-SO 112 7,8 C 14,1 C
08.05.2012 23:36 14,1 C 66 % 1013,6 hPa 0,0 l/m 2,2 km/h (1 Bft) O-SO 112 7,8 C 14,1 C
08.05.2012 23:41 13,9 C 67 % 1013,5 hPa 0,0 l/m 2,2 km/h (1 Bft) SO 135 7,9 C 13,9 C
08.05.2012 23:46 13,9 C 67 % 1013,5 hPa 0,0 l/m 0,0 km/h (0 Bft) O-SO 112 7,9 C 13,9 C
08.05.2012 23:51 13,9 C 67 % 1013,5 hPa 0,0 l/m 2,9 km/h (1 Bft) O 90 7,9 C 13,9 C
08.05.2012 23:56 13,8 C 67 % 1013,6 hPa 0,0 l/m 2,2 km/h (1 Bft) SO 135 7,8 C 13,8 C
_ Min-Zeit 03:31 16:46 23:31 - 00:01 - - 03:31 03:31
Minimum _ 8,7 C 43 % 1013,5 hPa - 0,0 km/h (0 Bft) - - 6,0 C 7,7 C
_ Max-Zeit 16:46 06:21 00:06 00:01 13:51 - - 10:56 16:46
Maximum _ 21,3 C 86 % 1020,4 hPa 0,5 l/m 19,1 km/h
S (3 Bft)
- - 10,3 C 21,3 C
Durchschnitt _ 14,8 C 65 % 1016,9 hPa #0,5 l/m 5,3 km/h (1 Bft) SO - 7,8 C 14,8 C
(c) by David Heller